Location: Boiro
(42.6475°N, 8.8834°W)
Time: 06:52:31
(UTC+01:00)

DX 1 - Visible Passes

Search period start: 25 January 2022 00:00
Search period end: 04 February 2022 00:00
Orbit: 617 x 631 km, 98.4° (Epoch: 24 January)

Date Brightness Start Highest point End Pass type
(mag) Time Alt. Az. Time Alt. Az. Time Alt. Az.
27 Jan ? 07:40:24 10° ENE 07:41:11 10° ENE 07:41:58 10° NE visible
28 Jan ? 07:56:52 10° E 07:59:27 16° ENE 08:02:03 10° NNE visible
29 Jan ? 08:14:23 10° ESE 08:17:47 23° ENE 08:21:12 10° NNE visible
02 Feb ? 07:53:39 10° E 07:55:56 14° ENE 07:58:13 10° NNE visible
03 Feb ? 08:11:00 10° ESE 08:14:14 21° ENE 08:17:29 10° NNE visible
